Regional Weather Roundup
Issued by NWS Sioux Falls, SD

Home | Current Version | Previous Version | Text Only | Print | Product List | Glossary Off
Versions: 1 2 3 4 5 6 7 8 9 10 11 12 13 14 15 16 17 18 19 20 21 22 23 24 25 26 27 28 29 30 31 32 33 34 35 36 37 38 39 40 41 42 43 44 45 46 47 48 49 50

074
ASUS43 KFSD 200210
RWRFSD

WEATHER ROUNDUP FOR SE SOUTH DAKOTA/SW MINNESOTA/NW IOWA
NATIONAL WEATHER SERVICE SIOUX FALLS SD
800 PM CST MON FEB 19 2018

NOTE: "FAIR" INDICATES FEW OR NO CLOUDS BELOW 12,000 FEET WITH NO
SIGNIFICANT WEATHER AND OR OBSTRUCTIONS TO VISIBILITY.


SDZ038>040-050-052>070-200300-
SOUTHEAST SOUTH DAKOTA

CITY           SKY/WX    TMP DP  RH WIND       PRES   REMARKS
BROOKINGS      LGT SNOW  10   6  84 N12G20    29.92R FOG     WCI  -5
CHAMBERLAIN    LGT SNOW  10   6  83 N12G22    29.98R WCI  -5
HURON          LGT SNOW   9   5  84 N15G23    29.99F FOG     WCI  -8
MADISON        LGT RAIN  10  10 100 NE16G22   29.90F WCI  -7
MITCHELL       CLOUDY    12   8  84 N17       29.96F WCI  -5
SIOUX FALLS    FLURRIES  15  11  83 N12       29.90S WCI   2
WINNER         LGT SNOW   9   4  80 N16       29.98R WCI  -8
YANKTON        FLURRIES  16  13  88 N13       29.93R WCI   2
$$

MNZ071-072-080-081-089-090-097-098-200300-
SOUTHWEST MINNESOTA

CITY           SKY/WX    TMP DP  RH WIND       PRES   REMARKS
FAIRMONT       CLOUDY    19  18  95 N17       29.85R FOG     WCI   4
JACKSON        CLOUDY    18  14  86 N14       29.85R WCI   4
LUVERNE        FLURRIES  16  12  86 NE12G18   29.88F WCI   3
MARSHALL       LGT SNOW  14  12  92 N13       29.95R FOG     WCI   0
MONTEVIDEO     LGT SNOW  14  10  85 NE15      29.96F WCI  -1
PIPESTONE      LGT SNOW  12  10  92 NE20G25   29.86F WCI  -6
REDWOOD FALLS  CLOUDY    16  14  92 N10       29.92F WCI   4
TRACY          LGT SNOW  16  15  95 N15       29.90S WCI   1
WINDOM         HAZE      16   3  57 N15       29.85S VSB 1   WCI   1
WORTHINGTON    FLURRIES  15  12  88 N17       29.86S WCI  -1
$$

IAZ001>003-012>014-020>022-031-032-NEZ013-014-SDZ071-200300-
NORTHWEST IOWA

CITY           SKY/WX    TMP DP  RH WIND       PRES   REMARKS
CHEROKEE       CLOUDY    20  20  96 N7        29.87R WCI  12
DENISON        CLOUDY    21  21 100 N12       29.86R WCI   9
ESTHERVILLE    CLOUDY    18  17  96 N18       29.84S FOG     WCI   2
LE MARS        CLOUDY    19  16  86 MISG      29.89S
ORANGE CITY    CLOUDY    18  18 100 N8        29.87R WCI   7
SHELDON        CLOUDY    16  16 100 MISG      29.84S
SIOUX CITY     CLOUDY    20  17  88 N10       29.90R WCI   9
SPENCER        MIX PCPN  19  16  88 N17G24    29.84F FOG     WCI   4
STORM LAKE     CLOUDY    19  19 100 MISG      29.83S
$$

ABBREVIATIONS USED IN REMARKS
   TC - TEMPERATURE IN CELSIUS
  WCI - WIND CHILL INDEX
   HX - HEAT INDEX
  VSB - VISIBILITY





USA.gov is the U.S. government's official web portal to all federal, state and local government web resources and services.